Weather History for KPIL - February, 2013

Change the Weather History Date:

Saturday, February 9, 2013

  Actual Average Record
Temperature  
Mean Temperature 73 °F -  
Max Temperature 80 °F - - ()
Min Temperature 66 °F - - ()
Cooling Degree Days 8    
Growing Degree Days 23 (Base 50)    
Moisture  
Dew Point 68 °F    
Average Humidity 81    
Maximum Humidity 88    
Minimum Humidity 70    
Precipitation  
Precipitation 0.00 in - - ()
Sea Level Pressure  
Sea Level Pressure 29.93 in    
Wind  
Wind Speed 14 mph (SE)    
Max Wind Speed 23 mph    
Max Gust Speed 30 mph    
Visibility 7 miles    
Events Rain    
T = Trace of Precipitation, MM = Missing Value Source: NWS Daily Summary

Daily Weather History Graph

Daily Weather History Graph

Search for Another Location

Airport or City:

Trip Planner

Search our weather history database for the weather conditions in past years. The results will help you decide how hot, cold, wet, or windy it might be!

Date:

Astronomy

Feb. 09, 2013 Rise Set
Actual Time 7:08 AM CST 6:18 PM CST
Civil Twilight 6:45 AM CST 6:42 PM CST
Nautical Twilight 6:17 AM CST 7:09 PM CST
Astronomical Twilight 5:50 AM CST 7:36 PM CST
Moon 6:22 AM CST (2/9) 5:59 PM CST (2/9)
Length of Visible Light 11h 57m
Length of Day
11h 09m
Waning Crescent, 0% of the Moon is Illuminated
Feb 9
Waning Crescent
Feb 10
New
Feb 17
First Quarter
Feb 25
Full
Mar 4
Last Quarter

Hourly Weather History & Observations

Time (CST) Temp. Heat Index Dew Point Humidity Pressure Visibility Wind Dir Wind Speed Gust Speed Precip Events Conditions
12:53 AM 66.9 °F - 63.0 °F 87% 30.04 in 8.0 mi East 9.2 mph - N/A   Clear
1:53 AM 68.0 °F - 63.0 °F 84% 30.03 in 8.0 mi East 8.1 mph - N/A   Clear
2:41 AM 69.8 °F - 64.4 °F 83% 30.01 in 8.0 mi ESE 10.4 mph - N/A   Mostly Cloudy
2:48 AM 69.8 °F - 64.4 °F 83% 30.01 in 8.0 mi ESE 11.5 mph - N/A   Mostly Cloudy
2:53 AM 69.1 °F - 64.9 °F 87% 30.01 in 8.0 mi ESE 11.5 mph - N/A   Overcast
3:28 AM 69.8 °F - 64.4 °F 83% 30.00 in 7.0 mi ESE 10.4 mph - N/A   Scattered Clouds
3:53 AM 69.1 °F - 64.9 °F 87% 29.99 in 7.0 mi ESE 11.5 mph - N/A   Partly Cloudy
4:36 AM 69.8 °F - 64.4 °F 83% 29.98 in 7.0 mi East 11.5 mph - N/A   Overcast
4:49 AM 69.8 °F - 66.2 °F 88% 29.99 in 7.0 mi ESE 10.4 mph - N/A   Overcast
4:53 AM 70.0 °F - 66.0 °F 87% 29.98 in 7.0 mi ESE 9.2 mph - N/A   Overcast
5:03 AM 69.8 °F - 66.2 °F 88% 29.98 in 7.0 mi ESE 11.5 mph - N/A   Overcast
5:53 AM 70.0 °F - 66.0 °F 87% 29.98 in 7.0 mi East 11.5 mph - N/A   Overcast
6:44 AM 71.6 °F - 66.2 °F 83% 29.98 in 7.0 mi East 10.4 mph - N/A   Overcast
6:53 AM 71.1 °F - 66.9 °F 87% 29.99 in 7.0 mi East 10.4 mph - N/A   Overcast
7:23 AM 71.6 °F - 66.2 °F 83% 29.99 in 5.0 mi ESE 10.4 mph - N/A   Overcast
7:53 AM 72.0 °F - 66.9 °F 84% 29.99 in 6.0 mi SE 12.7 mph - N/A   Haze
8:53 AM 73.9 °F - 68.0 °F 82% 30.00 in 6.0 mi ESE 15.0 mph - N/A   Haze
9:02 AM 75.2 °F - 69.8 °F 83% 29.99 in 6.0 mi ESE 16.1 mph 23.0 mph N/A   Haze
9:53 AM 75.0 °F - 68.0 °F 79% 30.00 in 7.0 mi ESE 15.0 mph - N/A   Overcast
10:39 AM 75.2 °F - 69.8 °F 83% 30.00 in 7.0 mi SE 17.3 mph 24.2 mph N/A   Overcast
10:53 AM 77.0 °F - 69.1 °F 76% 29.99 in 7.0 mi SE 20.7 mph - N/A   Overcast
11:03 AM 77.0 °F - 69.8 °F 78% 29.99 in 7.0 mi SE 20.7 mph 26.5 mph N/A   Mostly Cloudy
11:53 AM 77.0 °F - 69.1 °F 76% 29.97 in 7.0 mi SE 21.9 mph 27.6 mph N/A   Overcast
12:13 PM 75.2 °F - 69.8 °F 83% 29.96 in 6.0 mi SE 16.1 mph 25.3 mph 0.00 in Rain Light Rain
12:32 PM 75.2 °F - 69.8 °F 83% 29.95 in 7.0 mi SE 17.3 mph 24.2 mph 0.00 in   Overcast
12:53 PM 78.1 °F - 69.1 °F 74% 29.94 in 7.0 mi SE 18.4 mph 26.5 mph 0.00 in   Overcast
1:10 PM 77.0 °F - 69.8 °F 78% 29.92 in 6.0 mi SE 21.9 mph 26.5 mph 0.00 in Rain Light Rain
1:53 PM 78.1 °F - 70.0 °F 76% 29.90 in 7.0 mi SE 18.4 mph - 0.00 in   Overcast
2:35 PM 80.6 °F 83.9 °F 69.8 °F 70% 29.87 in 7.0 mi SE 18.4 mph 26.5 mph N/A   Mostly Cloudy
2:46 PM 80.6 °F 83.9 °F 69.8 °F 70% 29.86 in 7.0 mi SSE 19.6 mph 28.8 mph N/A   Overcast
2:53 PM 79.0 °F - 70.0 °F 74% 29.86 in 7.0 mi SSE 19.6 mph 28.8 mph N/A   Overcast
3:53 PM 79.0 °F - 69.1 °F 72% 29.83 in 7.0 mi SSE 23.0 mph 29.9 mph N/A   Mostly Cloudy
4:16 PM 78.8 °F - 69.8 °F 74% 29.84 in 7.0 mi SSE 19.6 mph 28.8 mph N/A   Mostly Cloudy
4:53 PM 78.1 °F - 69.1 °F 74% 29.83 in 7.0 mi SSE 21.9 mph 27.6 mph N/A   Mostly Cloudy
5:02 PM 77.0 °F - 69.8 °F 78% 29.83 in 7.0 mi SSE 17.3 mph 27.6 mph N/A   Overcast
5:53 PM 75.9 °F - 69.1 °F 79% 29.83 in 7.0 mi SE 18.4 mph - N/A   Overcast
6:47 PM 73.4 °F - 69.8 °F 88% 29.82 in 7.0 mi SSE 16.1 mph - N/A   Scattered Clouds
6:53 PM 73.9 °F - 69.1 °F 85% 29.82 in 7.0 mi SSE 18.4 mph - N/A   Scattered Clouds
7:53 PM 73.0 °F - 69.1 °F 87% 29.82 in 7.0 mi SSE 17.3 mph - N/A   Clear
8:53 PM 73.0 °F - 69.1 °F 87% 29.82 in 7.0 mi SSE 19.6 mph - N/A   Partly Cloudy
9:53 PM 73.9 °F - 69.1 °F 85% 29.82 in 7.0 mi SSE 20.7 mph 28.8 mph N/A   Clear
10:53 PM 75.0 °F - 69.1 °F 82% 29.83 in 8.0 mi South 17.3 mph 27.6 mph N/A   Clear
11:53 PM 75.0 °F - 69.1 °F 82% 29.83 in 8.0 mi South 20.7 mph 28.8 mph N/A   Clear